Location: Ballard
(38.3614°N, 94.1431°W)
Time: 22:14:49
(UTC-05:00)

Hubble Space Telescope - Visible Passes

Search period start: 20 March 2019 00:00
Search period end: 30 March 2019 00:00
Orbit: 537 x 540 km, 28.5° (Epoch: 19 March)

Date Brightness Start Highest point End Pass type
(mag) Time Alt. Az. Time Alt. Az. Time Alt. Az.
24 Mar 3.4 21:38:35 10° SSW 21:38:49 11° SSW 21:38:49 11° SSW visible
25 Mar 3.0 21:27:50 10° SW 21:29:10 15° SSW 21:29:10 15° SSW visible
26 Mar 2.6 21:17:09 10° SW 21:19:27 19° S 21:19:27 19° S visible
27 Mar 2.4 21:06:31 10° SW 21:09:37 20° S 21:09:41 20° S visible
28 Mar 2.4 20:55:55 10° SW 20:59:01 21° S 20:59:52 19° SSE visible
29 Mar 2.5 20:45:22 10° SW 20:48:27 20° S 20:50:02 17° SSE visible
